AP-NC--RDU-NC NO Central Weather Roundup, NC

000

ASUS42 KRAH 151510

RWRRAH

NORTH CAROLINA WEATHER ROUNDUP

NATIONAL WEATHER SERVICE RALEIGH NC

1100 AM EDT WED JUL 15 2015

NOTE: "FAIR" INDICATES FEW OR NO CLOUDS BELOW 12,000 FEET WITH NO

SIGNIFICANT WEATHER AND/OR OBSTRUCTIONS TO VISIBILITY.

NCZ001-053-055-056-065-067-151600-

WESTERN NORTH CAROLINA

CITY SKY/WX TMP DP RH WIND PRES REMARKS

ASHEVILLE CLOUDY 75 65 70 N9 29.92R

JEFFERSON CLOUDY 67 56 66 NW6 29.95R

HICKORY CLOUDY 80 62 54 N3 29.85R

RUTHERFORDTON CLOUDY 81 67 61 E6 29.85S

MOUNT AIRY CLOUDY 79 66 64 W6 29.86R

BOONE CLOUDY 67 57 69 NW9G20 29.95R

$$

NCZ021-022-025-041-071-084-088-151600-

CENTRAL NORTH CAROLINA

CITY SKY/WX TMP DP RH WIND PRES REMARKS

CHARLOTTE CLOUDY 85 63 47 W5 29.82R

GREENSBORO PTSUNNY 83 62 49 N10G18 29.80R

WINSTON-SALEM MOSUNNY 82 59 45 NW12G23 29.83R

RALEIGH-DURHAM MOSUNNY 84 66 54 NW9 29.77R

FORT BRAGG SUNNY 86 67 53 NW6 29.76S

FAYETTEVILLE SUNNY 86 67 52 W8 29.76F

BURLINGTON MOSUNNY 84 66 54 NW10G17 29.79R

LAURINBURG SUNNY 86 66 51 W7 29.79S HAZE

$$

NCZ011-015-027-028-043-044-047-080-103-151600-

NORTHEASTERN NORTH CAROLINA

CITY SKY/WX TMP DP RH WIND PRES REMARKS

ROCKY MT-WILSO MOSUNNY 88 66 48 NW8 29.74R

GREENVILLE SUNNY 82 70 65 W9 29.75S

WASHINGTON PTSUNNY 84 71 64 W7 29.72F

ELIZABETH CITY PTSUNNY 84 71 65 W12 29.70R

MANTEO PTSUNNY 82 73 72 W14G21 29.71R

CAPE HATTERAS PTSUNNY 81 73 76 SW10 29.73S

$$

NCZ078-087-090-091-093-098-101-151600-

SOUTHEASTERN NORTH CAROLINA

CITY SKY/WX TMP DP RH WIND PRES REMARKS

LUMBERTON SUNNY 85 69 58 W9 29.77F

GOLDSBORO SUNNY 85 69 60 W13 29.72F

KINSTON SUNNY 86 68 54 W12 29.74F

KENANSVILLE PTSUNNY 84 68 57 W8G16 29.76F

NEW BERN PTSUNNY 85 72 65 W12 29.73F

CHERRY POINT N/A 86 71 60 W14 29.74F

BEAUFORT PTSUNNY 85 74 69 SW12 29.73F

JACKSONVILLE PTSUNNY 83 71 67 W9 29.73S

WILMINGTON PTSUNNY 86 70 58 W17G25 29.74F

$$

Delivered by Weather Underground Inc. Wed Jul 15 2015 11:10AM EDT